This is the latest recevied weather packets stored in our database for station/object SP7QPD-1. If no packets are shown the sender has not sent any weather packets the latest 10 day(s).
| Time | Temp. | Humidity | Pressure | Rain* | Wind** | Luminosity | Snow |
|---|---|---|---|---|---|---|---|
| 1778085811 | 23.33° C | 47% | 1002.3 hPa | 0 mm | - | - | - |
| 1778085211 | 23.33° C | 47% | 1002.3 hPa | 0 mm | - | - | - |
| 1778084611 | 23.33° C | 46% | 1002.2 hPa | 0 mm | - | - | - |
| 1778084011 | 23.89° C | 45% | 1002.4 hPa | 0 mm | - | - | - |
| 1778083411 | 23.89° C | 45% | 1002.4 hPa | 0 mm | - | - | - |
| 1778082811 | 23.89° C | 44% | 1002.4 hPa | 0 mm | - | - | - |
| 1778082211 | 24.44° C | 44% | 1002.5 hPa | 0 mm | - | - | - |
| 1778081610 | 25° C | 43% | 1002.6 hPa | 0 mm | - | - | - |
| 1778081010 | 25° C | 42% | 1002.5 hPa | 0 mm | - | - | - |
| 1778080410 | 25° C | 42% | 1002.4 hPa | 0 mm | - | - | - |
| 1778079810 | 25.56° C | 42% | 1002.5 hPa | 0 mm | - | - | - |
| 1778079210 | 25° C | 43% | 1002.5 hPa | 0 mm | - | - | - |
| 1778078610 | 25° C | 43% | 1002.5 hPa | 0 mm | - | - | - |
| 1778078010 | 25° C | 42% | 1002.5 hPa | 0 mm | - | - | - |
| 1778077410 | 25.56° C | 43% | 1002.6 hPa | 0 mm | - | - | - |
| 1778076810 | 25.56° C | 43% | 1002.7 hPa | 0 mm | - | - | - |
| 1778076210 | 25° C | 43% | 1002.7 hPa | 0 mm | - | - | - |
| 1778075610 | 25.56° C | 42% | 1002.5 hPa | 0 mm | - | - | - |
| 1778075009 | 26.11° C | 42% | 1002.6 hPa | 0 mm | - | - | - |
| 1778074409 | 25.56° C | 43% | 1002.5 hPa | 0 mm | - | - | - |
| 1778073809 | 25.56° C | 43% | 1002.5 hPa | 0 mm | - | - | - |
| 1778073209 | 25° C | 44% | 1002.8 hPa | 0 mm | - | - | - |
| 1778072609 | 25° C | 44% | 1002.8 hPa | 0 mm | - | - | - |
| 1778072009 | 24.44° C | 45% | 1002.5 hPa | 0 mm | - | - | - |
| 1778071409 | 25° C | 44% | 1002.8 hPa | 0 mm | - | - | - |
* Rain latest hour (hover to see other rain measurements)
** Current wind speed in m/s (hover to see current wind gust speed)